TimeCST,TemperatureF,Dew PointF,Humidity,Sea Level PressureIn,VisibilityMPH,Wind Direction,Wind SpeedMPH,Gust SpeedMPH,PrecipitationIn,Events,Conditions,WindDirDegrees,DateUTC
12:55 AM,28.0,21.0,75,30.11,10.0,SW,8.1,-,N/A,,Clear,230,2014-01-19 06:55:00
1:55 AM,27.0,21.0,78,30.11,10.0,WSW,10.4,-,N/A,,Clear,240,2014-01-19 07:55:00
2:55 AM,27.0,21.0,78,30.09,10.0,WSW,12.7,-,N/A,,Clear,240,2014-01-19 08:55:00
3:55 AM,30.0,21.9,72,30.06,10.0,SW,10.4,-,N/A,,Clear,230,2014-01-19 09:55:00
4:55 AM,30.0,21.0,69,30.03,10.0,WSW,16.1,-,N/A,,Clear,240,2014-01-19 10:55:00
5:55 AM,28.9,19.9,69,30.02,10.0,WSW,11.5,-,N/A,,Clear,240,2014-01-19 11:55:00
6:55 AM,30.0,18.0,61,29.99,10.0,SW,11.5,-,N/A,,Clear,230,2014-01-19 12:55:00
7:55 AM,32.0,18.0,56,29.97,10.0,WSW,12.7,-,N/A,,Clear,250,2014-01-19 13:55:00
8:55 AM,36.0,18.0,48,29.98,10.0,WSW,13.8,-,N/A,,Clear,250,2014-01-19 14:55:00
9:55 AM,42.1,19.0,40,29.95,10.0,WSW,19.6,26.5,N/A,,Clear,250,2014-01-19 15:55:00
10:55 AM,48.0,21.0,34,29.93,10.0,West,15.0,-,N/A,,Clear,260,2014-01-19 16:55:00
11:55 AM,52.0,21.9,31,29.91,10.0,West,16.1,-,N/A,,Clear,270,2014-01-19 17:55:00
12:55 PM,55.0,23.0,29,29.87,10.0,West,12.7,-,N/A,,Clear,260,2014-01-19 18:55:00
1:55 PM,61.0,21.9,22,29.83,10.0,West,16.1,-,N/A,,Clear,260,2014-01-19 19:55:00
2:55 PM,64.0,23.0,21,29.81,10.0,West,12.7,-,N/A,,Clear,270,2014-01-19 20:55:00
3:55 PM,64.0,23.0,21,29.81,10.0,WSW,10.4,-,N/A,,Clear,240,2014-01-19 21:55:00
4:55 PM,61.0,21.9,22,29.82,10.0,WSW,8.1,-,N/A,,Clear,240,2014-01-19 22:55:00
5:55 PM,53.1,21.0,29,29.85,10.0,WSW,8.1,-,N/A,,Clear,240,2014-01-19 23:55:00
6:55 PM,50.0,21.0,32,29.86,10.0,WSW,4.6,-,N/A,,Clear,250,2014-01-20 00:55:00
7:55 PM,50.0,21.0,32,29.87,10.0,WSW,6.9,-,N/A,,Clear,250,2014-01-20 01:55:00
8:55 PM,42.1,21.0,43,29.88,10.0,Calm,Calm,-,N/A,,Clear,0,2014-01-20 02:55:00
9:55 PM,45.0,21.9,40,29.87,10.0,West,6.9,-,N/A,,Clear,270,2014-01-20 03:55:00
10:55 PM,48.9,21.0,33,29.87,10.0,West,3.5,-,N/A,,Clear,280,2014-01-20 04:55:00
11:55 PM,44.1,19.0,37,29.88,10.0,Calm,Calm,-,N/A,,Clear,0,2014-01-20 05:55:00